Tracking 35274 objects as of 11-Sep-2026
HD Live streaming from Space Station
objects crossing your sky now

STARLINK-1861


STARLINK-1861 is no longer on orbit
STARLINK-1861 is classified as:


NORAD ID: 47148
Int'l Code: 2020-088AC
Launch date: November 25, 2020
Source: United States (US)
Launch site: AIR FORCE EASTERN TEST RANGE (AFETR)
Decay date: 2025-07-25
Your satellite tracking list
Your tracking list is empty




NASA's NSSDC Master Catalog

Two Line Element Set (TLE):
1 47148U 20088AC  25206.00912153  .15473786  12492-4  50079-3 0  9995
2 47148  53.0197 181.5815 0005383 272.1552 205.1739 16.44543730258631
Source of the keplerian elements: AFSPC